Time,TemperatureF,DewpointF,PressureIn,WindDirection,WindDirectionDegrees,WindSpeedMPH,WindSpeedGustMPH,Humidity,HourlyPrecipIn,Conditions,Clouds,dailyrainin,SoftwareType,DateUTC
2013-07-03 00:01:00,69.0,65.0,30.10,NE,48,0.0,0.0,87,0.00,,,0.00,VWS V14.01,2013-07-03 04:01:00,
2013-07-03 00:03:00,69.0,65.0,30.10,NE,48,0.0,0.0,87,0.00,,,0.00,VWS V14.01,2013-07-03 04:03:00,
2013-07-03 00:04:00,69.0,65.0,30.10,NE,48,0.0,0.0,87,0.00,,,0.00,VWS V14.01,2013-07-03 04:04:00,
2013-07-03 00:09:00,69.0,65.0,30.10,NE,48,0.0,0.0,87,0.00,,,0.00,VWS V14.01,2013-07-03 04:09:00,
2013-07-03 00:14:00,69.0,65.0,30.10,NE,48,0.0,0.0,87,0.00,,,0.00,VWS V14.01,2013-07-03 04:14:00,
2013-07-03 00:19:00,68.9,64.9,30.10,NE,48,0.0,0.0,87,0.00,,,0.00,VWS V14.01,2013-07-03 04:19:00,
2013-07-03 00:24:00,68.8,64.8,30.10,NE,48,0.0,1.0,87,0.00,,,0.00,VWS V14.01,2013-07-03 04:24:00,
2013-07-03 00:29:00,68.7,64.7,30.10,NE,48,0.0,1.0,87,0.00,,,0.00,VWS V14.01,2013-07-03 04:29:00,
2013-07-03 00:31:00,68.7,64.7,30.10,NE,48,0.0,0.0,87,0.00,,,0.00,VWS V14.01,2013-07-03 04:31:00,
2013-07-03 00:32:00,68.7,64.7,30.10,NE,48,0.0,0.0,87,0.00,,,0.00,VWS V14.01,2013-07-03 04:32:00,
2013-07-03 00:37:00,68.6,64.6,30.10,NE,48,0.0,0.0,87,0.00,,,0.00,VWS V14.01,2013-07-03 04:37:00,
2013-07-03 00:42:00,68.5,64.5,30.10,NE,48,0.0,0.0,87,0.00,,,0.00,VWS V14.01,2013-07-03 04:42:00,
2013-07-03 00:45:00,68.5,64.5,30.10,NE,48,0.0,0.0,87,0.00,,,0.00,VWS V14.01,2013-07-03 04:45:00,
2013-07-03 00:46:00,68.4,64.4,30.10,NE,48,0.0,0.0,87,0.00,,,0.00,VWS V14.01,2013-07-03 04:46:00,
2013-07-03 00:51:00,68.4,64.7,30.10,NE,48,0.0,0.0,88,0.00,,,0.00,VWS V14.01,2013-07-03 04:51:00,
2013-07-03 00:53:00,68.4,64.7,30.10,NE,48,0.0,0.0,88,0.00,,,0.00,VWS V14.01,2013-07-03 04:53:00,
2013-07-03 00:58:00,68.4,64.7,30.10,NE,48,0.0,0.0,88,0.00,,,0.00,VWS V14.01,2013-07-03 04:58:00,
2013-07-03 01:03:00,68.3,64.6,30.10,NE,48,0.0,0.0,88,0.00,,,0.00,VWS V14.01,2013-07-03 05:03:00,
2013-07-03 01:07:00,68.3,64.6,30.10,NE,48,0.0,0.0,88,0.00,,,0.00,VWS V14.01,2013-07-03 05:07:00,
2013-07-03 01:12:00,68.3,64.6,30.09,NE,48,0.0,0.0,88,0.00,,,0.00,VWS V14.01,2013-07-03 05:12:00,
2013-07-03 01:17:00,68.3,64.6,30.09,NE,48,0.0,1.0,88,0.00,,,0.00,VWS V14.01,2013-07-03 05:17:00,
2013-07-03 01:19:00,68.3,64.6,30.09,NE,48,0.0,1.0,88,0.00,,,0.00,VWS V14.01,2013-07-03 05:19:00,
2013-07-03 01:24:00,68.2,64.5,30.09,NE,48,0.0,2.0,88,0.00,,,0.00,VWS V14.01,2013-07-03 05:24:00,
2013-07-03 01:29:00,68.2,64.5,30.09,NE,48,0.0,2.0,88,0.00,,,0.00,VWS V14.01,2013-07-03 05:29:00,
2013-07-03 01:34:00,68.1,64.4,30.09,NE,49,0.0,2.0,88,0.00,,,0.00,VWS V14.01,2013-07-03 05:34:00,
2013-07-03 01:39:00,68.0,64.3,30.09,NE,49,0.0,2.0,88,0.00,,,0.00,VWS V14.01,2013-07-03 05:39:00,
2013-07-03 01:43:00,68.0,64.3,30.09,NE,49,0.0,2.0,88,0.00,,,0.00,VWS V14.01,2013-07-03 05:43:00,
2013-07-03 01:49:00,67.9,64.2,30.09,NE,49,0.0,2.0,88,0.00,,,0.00,VWS V14.01,2013-07-03 05:49:00,
2013-07-03 01:54:00,67.9,64.2,30.09,NE,49,0.0,2.0,88,0.00,,,0.00,VWS V14.01,2013-07-03 05:54:00,
2013-07-03 01:57:00,67.8,64.1,30.09,NE,49,0.0,2.0,88,0.00,,,0.00,VWS V14.01,2013-07-03 05:57:00,
2013-07-03 01:58:00,67.8,64.1,30.09,NE,49,0.0,2.0,88,0.00,,,0.00,VWS V14.01,2013-07-03 05:58:00,
2013-07-03 02:03:00,67.7,64.0,30.08,NNW,342,0.0,4.0,88,0.00,,,0.00,VWS V14.01,2013-07-03 06:03:00,
2013-07-03 02:08:00,67.7,64.0,30.09,North,5,0.0,4.0,88,0.00,,,0.00,VWS V14.01,2013-07-03 06:08:00,
2013-07-03 02:13:00,67.6,63.9,30.08,North,5,0.0,4.0,88,0.00,,,0.00,VWS V14.01,2013-07-03 06:13:00,
2013-07-03 02:16:00,67.6,63.9,30.08,North,5,0.0,4.0,88,0.00,,,0.00,VWS V14.01,2013-07-03 06:16:00,
2013-07-03 02:17:00,67.6,63.9,30.08,North,5,0.0,4.0,88,0.00,,,0.00,VWS V14.01,2013-07-03 06:17:00,
2013-07-03 02:22:00,67.6,63.9,30.08,North,5,0.0,4.0,88,0.00,,,0.00,VWS V14.01,2013-07-03 06:22:00,
2013-07-03 02:24:00,67.6,63.9,30.08,North,5,0.0,4.0,88,0.00,,,0.00,VWS V14.01,2013-07-03 06:24:00,
2013-07-03 02:26:00,67.5,63.8,30.08,North,5,0.0,4.0,88,0.00,,,0.00,VWS V14.01,2013-07-03 06:26:00,
2013-07-03 02:31:00,67.5,63.8,30.08,North,5,0.0,0.0,88,0.00,,,0.00,VWS V14.01,2013-07-03 06:31:00,
2013-07-03 02:32:00,67.5,63.8,30.08,North,5,0.0,0.0,88,0.00,,,0.00,VWS V14.01,2013-07-03 06:32:00,
2013-07-03 02:37:00,67.4,63.7,30.08,North,5,0.0,0.0,88,0.00,,,0.00,VWS V14.01,2013-07-03 06:37:00,
2013-07-03 02:43:00,67.4,64.1,30.08,North,5,0.0,1.0,89,0.00,,,0.00,VWS V14.01,2013-07-03 06:43:00,
2013-07-03 02:49:00,67.3,64.0,30.08,ENE,67,0.0,2.0,89,0.00,,,0.00,VWS V14.01,2013-07-03 06:49:00,
2013-07-03 02:54:00,67.2,63.8,30.08,ENE,67,0.0,2.0,89,0.00,,,0.00,VWS V14.01,2013-07-03 06:54:00,
2013-07-03 02:55:00,67.2,63.8,30.08,ENE,67,0.0,2.0,89,0.00,,,0.00,VWS V14.01,2013-07-03 06:55:00,
2013-07-03 03:00:00,67.0,63.7,30.08,ENE,67,0.0,1.0,89,0.00,,,0.00,VWS V14.01,2013-07-03 07:00:00,
2013-07-03 03:05:00,66.9,63.6,30.08,ENE,67,0.0,1.0,89,0.00,,,0.00,VWS V14.01,2013-07-03 07:05:00,
2013-07-03 03:10:00,66.8,63.5,30.08,ENE,67,0.0,1.0,89,0.00,,,0.00,VWS V14.01,2013-07-03 07:10:00,
2013-07-03 03:15:00,66.7,63.4,30.08,ENE,67,0.0,1.0,89,0.00,,,0.00,VWS V14.01,2013-07-03 07:15:00,
2013-07-03 03:16:00,66.7,63.4,30.08,ENE,67,0.0,1.0,89,0.00,,,0.00,VWS V14.01,2013-07-03 07:16:00,
2013-07-03 03:21:00,66.6,63.3,30.08,ENE,67,0.0,1.0,89,0.00,,,0.00,VWS V14.01,2013-07-03 07:21:00,
2013-07-03 03:26:00,66.5,63.2,30.08,ENE,67,0.0,1.0,89,0.00,,,0.00,VWS V14.01,2013-07-03 07:26:00,
2013-07-03 03:31:00,66.5,63.2,30.08,ENE,67,0.0,1.0,89,0.00,,,0.00,VWS V14.01,2013-07-03 07:31:00,
2013-07-03 03:36:00,66.5,63.5,30.08,ENE,67,0.0,1.0,90,0.00,,,0.00,VWS V14.01,2013-07-03 07:36:00,
2013-07-03 03:38:00,66.5,63.5,30.08,ENE,67,0.0,2.0,90,0.00,,,0.00,VWS V14.01,2013-07-03 07:38:00,
2013-07-03 03:43:00,66.5,63.5,30.08,ENE,67,0.0,2.0,90,0.00,,,0.00,VWS V14.01,2013-07-03 07:43:00,
2013-07-03 03:48:00,66.4,63.1,30.08,ENE,67,0.0,2.0,89,0.00,,,0.00,VWS V14.01,2013-07-03 07:48:00,
2013-07-03 03:50:00,66.4,63.1,30.08,ENE,67,0.0,2.0,89,0.00,,,0.00,VWS V14.01,2013-07-03 07:50:00,
2013-07-03 03:55:00,66.4,63.1,30.08,ENE,67,0.0,2.0,89,0.00,,,0.00,VWS V14.01,2013-07-03 07:55:00,
2013-07-03 04:00:00,66.5,63.2,30.08,ENE,67,0.0,0.0,89,0.00,,,0.00,VWS V14.01,2013-07-03 08:00:00,
2013-07-03 04:01:00,66.5,63.2,30.08,ENE,67,0.0,0.0,89,0.00,,,0.00,VWS V14.01,2013-07-03 08:01:00,
2013-07-03 04:06:00,66.5,63.2,30.09,ENE,67,0.0,0.0,89,0.00,,,0.00,VWS V14.01,2013-07-03 08:06:00,
2013-07-03 04:09:00,66.6,63.3,30.08,ENE,67,0.0,0.0,89,0.00,,,0.00,VWS V14.01,2013-07-03 08:09:00,
2013-07-03 04:14:00,66.7,63.7,30.08,ENE,67,0.0,0.0,90,0.00,,,0.00,VWS V14.01,2013-07-03 08:14:00,
2013-07-03 04:18:00,66.7,63.4,30.09,ENE,67,0.0,1.0,89,0.00,,,0.00,VWS V14.01,2013-07-03 08:18:00,
2013-07-03 04:23:00,66.8,63.5,30.09,ENE,67,0.0,1.0,89,0.00,,,0.00,VWS V14.01,2013-07-03 08:23:00,
2013-07-03 04:28:00,66.9,63.6,30.09,ENE,67,0.0,1.0,89,0.00,,,0.00,VWS V14.01,2013-07-03 08:28:00,
2013-07-03 04:34:00,67.0,63.7,30.08,ENE,67,0.0,0.0,89,0.00,,,0.00,VWS V14.01,2013-07-03 08:34:00,
2013-07-03 04:39:00,67.0,63.7,30.08,ENE,67,0.0,2.0,89,0.00,,,0.00,VWS V14.01,2013-07-03 08:39:00,
2013-07-03 04:44:00,67.1,63.8,30.08,ENE,71,1.0,2.0,89,0.00,,,0.00,VWS V14.01,2013-07-03 08:44:00,
2013-07-03 04:45:00,67.1,63.8,30.08,ENE,71,0.0,2.0,89,0.00,,,0.00,VWS V14.01,2013-07-03 08:45:00,
2013-07-03 04:50:00,67.2,63.8,30.09,ENE,70,0.0,2.0,89,0.00,,,0.00,VWS V14.01,2013-07-03 08:50:00,
2013-07-03 04:55:00,67.2,63.8,30.09,ENE,70,0.0,2.0,89,0.00,,,0.00,VWS V14.01,2013-07-03 08:55:00,
2013-07-03 05:00:00,67.2,63.8,30.09,ENE,70,0.0,0.0,89,0.00,,,0.00,VWS V14.01,2013-07-03 09:00:00,
2013-07-03 05:06:00,67.3,64.0,30.09,ENE,70,0.0,0.0,89,0.00,,,0.00,VWS V14.01,2013-07-03 09:06:00,
2013-07-03 05:11:00,67.3,64.0,30.09,ENE,70,0.0,1.0,89,0.00,,,0.00,VWS V14.01,2013-07-03 09:11:00,
2013-07-03 05:16:00,67.3,64.0,30.09,ENE,71,0.0,1.0,89,0.00,,,0.00,VWS V14.01,2013-07-03 09:16:00,
2013-07-03 05:21:00,67.3,64.0,30.09,ENE,71,0.0,1.0,89,0.01,,,0.01,VWS V14.01,2013-07-03 09:21:00,
2013-07-03 05:26:00,67.2,63.8,30.09,ENE,70,0.0,1.0,89,0.01,,,0.01,VWS V14.01,2013-07-03 09:26:00,
2013-07-03 05:31:00,67.2,64.2,30.09,ENE,71,0.0,0.0,90,0.01,,,0.01,VWS V14.01,2013-07-03 09:31:00,
2013-07-03 05:37:00,67.2,64.2,30.09,ENE,70,0.0,0.0,90,0.01,,,0.01,VWS V14.01,2013-07-03 09:37:00,
2013-07-03 05:41:00,67.2,64.2,30.09,ENE,70,0.0,0.0,90,0.02,,,0.02,VWS V14.01,2013-07-03 09:41:00,
2013-07-03 05:46:00,67.1,64.1,30.10,ENE,71,0.0,1.0,90,0.02,,,0.02,VWS V14.01,2013-07-03 09:46:00,
2013-07-03 05:49:00,67.1,64.1,30.09,ENE,70,0.0,2.0,90,0.02,,,0.02,VWS V14.01,2013-07-03 09:49:00,
2013-07-03 05:50:00,67.1,64.1,30.09,ENE,70,0.0,2.0,90,0.02,,,0.02,VWS V14.01,2013-07-03 09:50:00,
2013-07-03 05:55:00,67.0,64.0,30.09,ENE,70,0.0,2.0,90,0.02,,,0.02,VWS V14.01,2013-07-03 09:55:00,
2013-07-03 06:01:00,67.0,64.0,30.09,ENE,70,0.0,0.0,90,0.02,,,0.02,VWS V14.01,2013-07-03 10:01:00,
2013-07-03 06:04:00,67.0,64.0,30.09,ENE,70,1.0,2.0,90,0.02,,,0.02,VWS V14.01,2013-07-03 10:04:00,
2013-07-03 06:05:00,67.0,64.0,30.09,ENE,70,1.0,2.0,90,0.02,,,0.02,VWS V14.01,2013-07-03 10:05:00,
2013-07-03 06:10:00,66.9,63.9,30.09,ENE,71,0.0,2.0,90,0.02,,,0.02,VWS V14.01,2013-07-03 10:10:00,
2013-07-03 06:15:00,66.8,63.8,30.09,ENE,70,0.0,2.0,90,0.02,,,0.02,VWS V14.01,2013-07-03 10:15:00,
2013-07-03 06:20:00,66.7,63.7,30.10,ENE,70,0.0,2.0,90,0.02,,,0.02,VWS V14.01,2013-07-03 10:20:00,
2013-07-03 06:25:00,66.7,63.7,30.10,ENE,70,0.0,2.0,90,0.06,,,0.06,VWS V14.01,2013-07-03 10:25:00,
2013-07-03 06:30:00,66.7,63.7,30.10,ENE,71,0.0,0.0,90,0.07,,,0.08,VWS V14.01,2013-07-03 10:30:00,
2013-07-03 06:31:00,66.7,63.7,30.10,ENE,71,0.0,0.0,90,0.07,,,0.08,VWS V14.01,2013-07-03 10:31:00,
2013-07-03 06:36:00,66.7,64.0,30.10,ENE,70,0.0,0.0,91,0.09,,,0.10,VWS V14.01,2013-07-03 10:36:00,
2013-07-03 06:41:00,66.8,64.1,30.10,ENE,71,0.0,0.0,91,0.09,,,0.10,VWS V14.01,2013-07-03 10:41:00,
2013-07-03 06:46:00,66.8,64.1,30.11,WSW,246,0.0,4.0,91,0.09,,,0.10,VWS V14.01,2013-07-03 10:46:00,
2013-07-03 06:49:00,66.7,64.0,30.11,WSW,246,0.0,4.0,91,0.09,,,0.10,VWS V14.01,2013-07-03 10:49:00,
2013-07-03 06:54:00,66.7,64.0,30.11,SSE,167,0.0,4.0,91,0.09,,,0.10,VWS V14.01,2013-07-03 10:54:00,
2013-07-03 06:55:00,66.7,64.0,30.11,SSE,167,0.0,4.0,91,0.09,,,0.10,VWS V14.01,2013-07-03 10:55:00,
2013-07-03 06:57:00,66.7,64.0,30.11,SSE,167,0.0,4.0,91,0.09,,,0.10,VWS V14.01,2013-07-03 10:57:00,
2013-07-03 07:03:00,66.7,64.0,30.11,SSE,167,0.0,0.0,91,0.08,,,0.10,VWS V14.01,2013-07-03 11:03:00,
2013-07-03 07:08:00,66.6,63.9,30.11,East,101,0.0,1.0,91,0.08,,,0.10,VWS V14.01,2013-07-03 11:08:00,
2013-07-03 07:09:00,66.6,63.9,30.11,East,101,0.0,1.0,91,0.08,,,0.10,VWS V14.01,2013-07-03 11:09:00,
2013-07-03 07:14:00,66.6,63.9,30.11,East,101,0.0,1.0,91,0.08,,,0.10,VWS V14.01,2013-07-03 11:14:00,
2013-07-03 07:19:00,66.7,64.0,30.11,East,96,0.0,1.0,91,0.08,,,0.10,VWS V14.01,2013-07-03 11:19:00,
2013-07-03 07:24:00,66.8,64.1,30.12,East,96,0.0,1.0,91,0.08,,,0.10,VWS V14.01,2013-07-03 11:24:00,
2013-07-03 07:25:00,66.8,64.1,30.12,East,96,0.0,1.0,91,0.08,,,0.10,VWS V14.01,2013-07-03 11:25:00,
2013-07-03 07:30:00,67.0,64.3,30.11,East,96,0.0,0.0,91,0.03,,,0.10,VWS V14.01,2013-07-03 11:30:00,
2013-07-03 07:35:00,67.1,64.4,30.12,ENE,78,1.0,1.0,91,0.03,,,0.10,VWS V14.01,2013-07-03 11:35:00,
2013-07-03 07:40:00,67.2,64.8,30.12,NE,55,0.0,3.0,92,0.03,,,0.10,VWS V14.01,2013-07-03 11:40:00,
2013-07-03 07:45:00,67.3,64.6,30.12,NE,55,0.0,3.0,91,0.03,,,0.10,VWS V14.01,2013-07-03 11:45:00,
2013-07-03 07:50:00,67.4,64.7,30.12,NE,55,0.0,3.0,91,0.03,,,0.10,VWS V14.01,2013-07-03 11:50:00,
2013-07-03 07:55:00,67.4,64.7,30.12,NE,55,0.0,3.0,91,0.04,,,0.11,VWS V14.01,2013-07-03 11:55:00,
2013-07-03 08:00:00,67.4,64.7,30.12,NE,56,0.0,0.0,91,0.02,,,0.12,VWS V14.01,2013-07-03 12:00:00,
2013-07-03 08:02:00,67.4,64.7,30.12,NE,56,0.0,0.0,91,0.02,,,0.12,VWS V14.01,2013-07-03 12:02:00,
2013-07-03 08:07:00,67.4,64.7,30.12,NE,56,1.0,1.0,91,0.04,,,0.14,VWS V14.01,2013-07-03 12:07:00,
2013-07-03 08:12:00,67.5,64.8,30.12,NE,56,0.0,1.0,91,0.06,,,0.16,VWS V14.01,2013-07-03 12:12:00,
2013-07-03 08:16:00,67.5,64.8,30.12,WNW,282,0.0,1.0,91,0.07,,,0.17,VWS V14.01,2013-07-03 12:16:00,
2013-07-03 08:21:00,67.5,64.8,30.12,WNW,283,0.0,1.0,91,0.09,,,0.19,VWS V14.01,2013-07-03 12:21:00,
2013-07-03 08:26:00,67.5,64.8,30.12,WNW,283,0.0,1.0,91,0.11,,,0.21,VWS V14.01,2013-07-03 12:26:00,
2013-07-03 08:31:00,67.4,64.7,30.12,NE,51,0.0,2.0,91,0.15,,,0.25,VWS V14.01,2013-07-03 12:31:00,
2013-07-03 08:36:00,67.4,64.7,30.13,NE,51,0.0,2.0,91,0.16,,,0.26,VWS V14.01,2013-07-03 12:36:00,
2013-07-03 08:41:00,67.4,64.7,30.13,NNE,33,0.0,2.0,91,0.18,,,0.28,VWS V14.01,2013-07-03 12:41:00,
2013-07-03 08:46:00,67.5,64.8,30.13,NNE,33,0.0,2.0,91,0.18,,,0.28,VWS V14.01,2013-07-03 12:46:00,
2013-07-03 08:51:00,67.6,64.9,30.13,NNE,33,0.0,2.0,91,0.18,,,0.28,VWS V14.01,2013-07-03 12:51:00,
2013-07-03 08:56:00,67.7,65.3,30.13,NNE,33,0.0,2.0,92,0.18,,,0.28,VWS V14.01,2013-07-03 12:56:00,
2013-07-03 09:02:00,67.9,65.5,30.13,NNE,33,0.0,0.0,92,0.16,,,0.28,VWS V14.01,2013-07-03 13:02:00,
2013-07-03 09:07:00,68.1,65.7,30.13,NNE,33,0.0,1.0,92,0.17,,,0.29,VWS V14.01,2013-07-03 13:07:00,
2013-07-03 09:12:00,68.3,65.9,30.14,NNE,33,0.0,1.0,92,0.17,,,0.29,VWS V14.01,2013-07-03 13:12:00,
2013-07-03 09:17:00,68.4,66.0,30.14,NNE,33,0.0,1.0,92,0.17,,,0.29,VWS V14.01,2013-07-03 13:17:00,
2013-07-03 09:22:00,68.5,66.1,30.14,ENE,71,1.0,3.0,92,0.17,,,0.29,VWS V14.01,2013-07-03 13:22:00,
2013-07-03 09:25:00,68.4,65.7,30.14,ENE,57,0.0,3.0,91,0.17,,,0.29,VWS V14.01,2013-07-03 13:25:00,
2013-07-03 09:30:00,68.4,66.0,30.14,ENE,73,0.0,1.0,92,0.05,,,0.29,VWS V14.01,2013-07-03 13:30:00,
2013-07-03 09:35:00,68.5,65.8,30.13,NE,36,0.0,3.0,91,0.05,,,0.29,VWS V14.01,2013-07-03 13:35:00,
2013-07-03 09:37:00,68.7,66.3,30.13,NNE,19,1.0,3.0,92,0.05,,,0.29,VWS V14.01,2013-07-03 13:37:00,
2013-07-03 09:42:00,68.8,66.1,30.13,ENE,57,0.0,3.0,91,0.05,,,0.29,VWS V14.01,2013-07-03 13:42:00,
2013-07-03 09:47:00,68.9,66.2,30.13,NW,323,0.0,3.0,91,0.05,,,0.29,VWS V14.01,2013-07-03 13:47:00,
2013-07-03 09:52:00,69.1,66.4,30.13,NW,323,0.0,3.0,91,0.05,,,0.29,VWS V14.01,2013-07-03 13:52:00,
2013-07-03 09:57:00,69.4,66.7,30.13,NW,323,0.0,3.0,91,0.05,,,0.29,VWS V14.01,2013-07-03 13:57:00,
2013-07-03 10:02:00,69.4,66.7,30.13,NW,323,0.0,0.0,91,0.04,,,0.32,VWS V14.01,2013-07-03 14:02:00,
2013-07-03 10:06:00,69.4,66.7,30.13,NW,323,0.0,0.0,91,0.05,,,0.33,VWS V14.01,2013-07-03 14:06:00,
2013-07-03 10:09:00,69.3,66.6,30.13,NW,323,0.0,0.0,91,0.05,,,0.33,VWS V14.01,2013-07-03 14:09:00,
2013-07-03 10:14:00,69.4,66.7,30.13,WSW,253,0.0,2.0,91,0.06,,,0.34,VWS V14.01,2013-07-03 14:14:00,
2013-07-03 10:18:00,69.4,66.7,30.14,WSW,253,0.0,2.0,91,0.06,,,0.34,VWS V14.01,2013-07-03 14:18:00,
2013-07-03 10:23:00,69.7,67.0,30.14,East,86,0.0,2.0,91,0.06,,,0.34,VWS V14.01,2013-07-03 14:23:00,
2013-07-03 10:28:00,69.9,67.2,30.14,East,86,0.0,2.0,91,0.06,,,0.34,VWS V14.01,2013-07-03 14:28:00,
2013-07-03 10:30:00,70.0,67.3,30.14,East,85,0.0,0.0,91,0.05,,,0.34,VWS V14.01,2013-07-03 14:30:00,
2013-07-03 10:35:00,70.3,67.6,30.14,East,86,0.0,0.0,91,0.05,,,0.34,VWS V14.01,2013-07-03 14:35:00,
2013-07-03 10:38:00,70.3,67.6,30.14,East,86,0.0,0.0,91,0.05,,,0.34,VWS V14.01,2013-07-03 14:38:00,
2013-07-03 10:41:00,70.3,67.2,30.14,East,86,0.0,0.0,90,0.05,,,0.34,VWS V14.01,2013-07-03 14:41:00,
2013-07-03 10:46:00,70.5,67.8,30.14,ENE,71,0.0,0.0,91,0.05,,,0.34,VWS V14.01,2013-07-03 14:46:00,
2013-07-03 10:51:00,70.6,67.5,30.14,ENE,71,0.0,0.0,90,0.05,,,0.34,VWS V14.01,2013-07-03 14:51:00,
2013-07-03 10:56:00,70.7,67.6,30.14,ENE,71,0.0,0.0,90,0.05,,,0.34,VWS V14.01,2013-07-03 14:56:00,
2013-07-03 10:58:00,70.7,67.6,30.14,ENE,71,0.0,0.0,90,0.05,,,0.34,VWS V14.01,2013-07-03 14:58:00,
2013-07-03 11:03:00,70.7,67.3,30.14,ENE,71,0.0,1.0,89,0.04,,,0.34,VWS V14.01,2013-07-03 15:03:00,
2013-07-03 11:08:00,70.6,67.2,30.14,ENE,71,0.0,1.0,89,0.04,,,0.34,VWS V14.01,2013-07-03 15:08:00,
2013-07-03 11:13:00,70.6,67.2,30.15,ENE,71,0.0,1.0,89,0.04,,,0.34,VWS V14.01,2013-07-03 15:13:00,
2013-07-03 11:15:00,70.7,67.3,30.15,ENE,71,0.0,1.0,89,0.04,,,0.34,VWS V14.01,2013-07-03 15:15:00,
2013-07-03 11:21:00,70.8,67.4,30.15,ENE,71,0.0,1.0,89,0.04,,,0.34,VWS V14.01,2013-07-03 15:21:00,
2013-07-03 11:26:00,70.9,67.5,30.15,ENE,71,0.0,1.0,89,0.04,,,0.34,VWS V14.01,2013-07-03 15:26:00,
2013-07-03 11:28:00,71.0,67.3,30.15,ENE,71,0.0,1.0,88,0.04,,,0.34,VWS V14.01,2013-07-03 15:28:00,
2013-07-03 11:33:00,70.9,67.2,30.15,NW,305,0.0,0.0,88,0.00,,,0.34,VWS V14.01,2013-07-03 15:33:00,
2013-07-03 11:39:00,71.0,67.6,30.15,NW,305,0.0,0.0,89,0.00,,,0.34,VWS V14.01,2013-07-03 15:39:00,
2013-07-03 11:40:00,71.0,67.6,30.15,NW,305,0.0,0.0,89,0.00,,,0.34,VWS V14.01,2013-07-03 15:40:00,
2013-07-03 11:45:00,70.8,67.1,30.15,NW,305,0.0,0.0,88,0.00,,,0.34,VWS V14.01,2013-07-03 15:45:00,
2013-07-03 11:50:00,70.8,67.1,30.15,NW,305,0.0,0.0,88,0.00,,,0.34,VWS V14.01,2013-07-03 15:50:00,
2013-07-03 11:52:00,70.8,67.1,30.15,NW,305,0.0,0.0,88,0.00,,,0.34,VWS V14.01,2013-07-03 15:52:00,
2013-07-03 11:57:00,71.0,67.3,30.15,NW,305,0.0,1.0,88,0.00,,,0.34,VWS V14.01,2013-07-03 15:57:00,
2013-07-03 12:02:00,71.0,67.3,30.15,NW,305,0.0,0.0,88,0.00,,,0.34,VWS V14.01,2013-07-03 16:02:00,
2013-07-03 12:07:00,71.0,67.3,30.14,SSW,208,0.0,2.0,88,0.00,,,0.34,VWS V14.01,2013-07-03 16:07:00,
2013-07-03 12:12:00,71.2,67.5,30.15,SSW,208,0.0,2.0,88,0.00,,,0.34,VWS V14.01,2013-07-03 16:12:00,
2013-07-03 12:17:00,71.1,67.0,30.14,SSE,166,0.0,3.0,87,0.00,,,0.34,VWS V14.01,2013-07-03 16:17:00,
2013-07-03 12:22:00,71.0,67.3,30.15,SSE,166,0.0,3.0,88,0.02,,,0.36,VWS V14.01,2013-07-03 16:22:00,
2013-07-03 12:27:00,70.7,67.0,30.15,SSE,166,0.0,3.0,88,0.04,,,0.38,VWS V14.01,2013-07-03 16:27:00,
2013-07-03 12:33:00,70.4,66.7,30.15,NW,307,0.0,2.0,88,0.04,,,0.38,VWS V14.01,2013-07-03 16:33:00,
2013-07-03 12:38:00,70.3,66.9,30.14,SSW,196,1.0,2.0,89,0.04,,,0.38,VWS V14.01,2013-07-03 16:38:00,
2013-07-03 12:43:00,70.1,66.4,30.14,SSW,205,0.0,3.0,88,0.04,,,0.38,VWS V14.01,2013-07-03 16:43:00,
2013-07-03 12:48:00,69.9,66.5,30.14,SSW,205,0.0,3.0,89,0.05,,,0.39,VWS V14.01,2013-07-03 16:48:00,
2013-07-03 12:53:00,70.0,66.6,30.15,SSW,205,0.0,3.0,89,0.06,,,0.40,VWS V14.01,2013-07-03 16:53:00,
2013-07-03 12:59:00,70.1,66.7,30.15,SSW,205,0.0,3.0,89,0.06,,,0.40,VWS V14.01,2013-07-03 16:59:00,
2013-07-03 13:04:00,70.1,66.7,30.15,SSW,205,0.0,0.0,89,0.06,,,0.40,VWS V14.01,2013-07-03 17:04:00,
2013-07-03 13:09:00,70.1,66.7,30.15,SSW,205,0.0,0.0,89,0.06,,,0.40,VWS V14.01,2013-07-03 17:09:00,
2013-07-03 13:14:00,70.0,66.6,30.14,SSW,205,0.0,0.0,89,0.07,,,0.41,VWS V14.01,2013-07-03 17:14:00,
2013-07-03 13:19:00,70.0,66.9,30.14,SSW,205,0.0,0.0,90,0.08,,,0.42,VWS V14.01,2013-07-03 17:19:00,
2013-07-03 13:24:00,70.0,66.6,30.14,North,5,0.0,1.0,89,0.08,,,0.42,VWS V14.01,2013-07-03 17:24:00,
2013-07-03 13:29:00,70.2,67.1,30.14,North,5,0.0,1.0,90,0.09,,,0.43,VWS V14.01,2013-07-03 17:29:00,
2013-07-03 13:34:00,70.4,67.3,30.14,North,5,0.0,1.0,90,0.05,,,0.43,VWS V14.01,2013-07-03 17:34:00,
2013-07-03 13:39:00,70.4,67.3,30.14,North,5,0.0,1.0,90,0.05,,,0.43,VWS V14.01,2013-07-03 17:39:00,
2013-07-03 13:44:00,70.5,67.4,30.14,North,5,0.0,1.0,90,0.05,,,0.43,VWS V14.01,2013-07-03 17:44:00,
2013-07-03 13:49:00,70.4,67.3,30.14,North,5,0.0,1.0,90,0.05,,,0.43,VWS V14.01,2013-07-03 17:49:00,
2013-07-03 13:54:00,70.2,66.8,30.14,SSW,211,2.0,3.0,89,0.06,,,0.44,VWS V14.01,2013-07-03 17:54:00,
2013-07-03 13:59:00,69.9,66.5,30.14,West,264,0.0,0.0,89,0.04,,,0.44,VWS V14.01,2013-07-03 17:59:00,
2013-07-03 14:04:00,69.9,66.5,30.14,SSW,199,0.0,1.0,89,0.04,,,0.44,VWS V14.01,2013-07-03 18:04:00,
2013-07-03 14:09:00,70.3,66.9,30.13,East,96,0.0,1.0,89,0.04,,,0.44,VWS V14.01,2013-07-03 18:09:00,
2013-07-03 14:14:00,70.7,67.3,30.13,NNW,328,0.0,4.0,89,0.04,,,0.44,VWS V14.01,2013-07-03 18:14:00,
2013-07-03 14:20:00,71.4,68.3,30.13,NNW,329,0.0,4.0,90,0.04,,,0.44,VWS V14.01,2013-07-03 18:20:00,
2013-07-03 14:25:00,71.9,68.8,30.12,NNW,329,0.0,4.0,90,0.04,,,0.44,VWS V14.01,2013-07-03 18:25:00,
2013-07-03 14:30:00,72.1,68.7,30.12,NE,55,0.0,1.0,89,0.01,,,0.44,VWS V14.01,2013-07-03 18:30:00,
2013-07-03 14:35:00,72.2,68.4,30.12,ENE,63,0.0,2.0,88,0.01,,,0.44,VWS V14.01,2013-07-03 18:35:00,
2013-07-03 14:40:00,72.1,68.0,30.12,NNE,22,0.0,3.0,87,0.01,,,0.44,VWS V14.01,2013-07-03 18:40:00,
2013-07-03 14:45:00,72.1,68.0,30.12,ENE,64,0.0,6.0,87,0.01,,,0.44,VWS V14.01,2013-07-03 18:45:00,
2013-07-03 14:50:00,72.2,68.4,30.12,ENE,64,0.0,6.0,88,0.01,,,0.44,VWS V14.01,2013-07-03 18:50:00,
2013-07-03 14:55:00,72.3,68.2,30.12,SSW,195,0.0,6.0,87,0.01,,,0.44,VWS V14.01,2013-07-03 18:55:00,
2013-07-03 15:00:00,72.3,67.9,30.12,South,186,0.0,0.0,86,0.00,,,0.44,VWS V14.01,2013-07-03 19:00:00,
2013-07-03 15:05:00,72.4,68.3,30.11,South,169,0.0,1.0,87,0.00,,,0.44,VWS V14.01,2013-07-03 19:05:00,
2013-07-03 15:10:00,72.4,68.3,30.11,South,169,0.0,1.0,87,0.00,,,0.44,VWS V14.01,2013-07-03 19:10:00,
2013-07-03 15:15:00,72.5,68.1,30.12,South,169,0.0,1.0,86,0.00,,,0.44,VWS V14.01,2013-07-03 19:15:00,
2013-07-03 15:20:00,72.7,68.6,30.11,South,169,1.0,1.0,87,0.00,,,0.44,VWS V14.01,2013-07-03 19:20:00,
2013-07-03 15:25:00,72.9,68.8,30.11,South,169,0.0,1.0,87,0.00,,,0.44,VWS V14.01,2013-07-03 19:25:00,
2013-07-03 15:30:00,72.9,68.8,30.12,South,189,13.0,13.0,87,0.03,,,0.47,VWS V14.01,2013-07-03 19:30:00,
2013-07-03 15:35:00,72.0,67.6,30.12,SW,231,0.0,13.0,86,0.11,,,0.55,VWS V14.01,2013-07-03 19:35:00,
2013-07-03 15:40:00,71.5,67.4,30.12,SW,231,0.0,13.0,87,0.13,,,0.57,VWS V14.01,2013-07-03 19:40:00,
2013-07-03 15:45:00,71.3,67.6,30.11,SW,231,0.0,13.0,88,0.14,,,0.58,VWS V14.01,2013-07-03 19:45:00,
2013-07-03 15:51:00,71.3,67.9,30.11,ENE,71,0.0,13.0,89,0.14,,,0.58,VWS V14.01,2013-07-03 19:51:00,
2013-07-03 15:56:00,71.2,67.8,30.11,ENE,65,0.0,13.0,89,0.14,,,0.58,VWS V14.01,2013-07-03 19:56:00,
2013-07-03 16:01:00,71.0,67.6,30.11,ENE,65,0.0,1.0,89,0.14,,,0.58,VWS V14.01,2013-07-03 20:01:00,
2013-07-03 16:06:00,70.9,67.5,30.11,ENE,65,1.0,1.0,89,0.14,,,0.58,VWS V14.01,2013-07-03 20:06:00,
2013-07-03 16:11:00,70.5,66.8,30.10,ENE,67,0.0,4.0,88,0.14,,,0.58,VWS V14.01,2013-07-03 20:11:00,
2013-07-03 16:16:00,70.3,66.9,30.10,ENE,68,2.0,4.0,89,0.14,,,0.58,VWS V14.01,2013-07-03 20:16:00,
2013-07-03 16:21:00,70.1,66.7,30.11,ENE,63,0.0,4.0,89,0.14,,,0.58,VWS V14.01,2013-07-03 20:21:00,
2013-07-03 16:26:00,70.0,66.6,30.11,ENE,63,0.0,4.0,89,0.14,,,0.58,VWS V14.01,2013-07-03 20:26:00,
2013-07-03 16:31:00,70.0,66.6,30.11,NNW,344,0.0,0.0,89,0.14,,,0.58,VWS V14.01,2013-07-03 20:31:00,
2013-07-03 16:36:00,70.0,66.9,30.11,NNW,344,0.0,0.0,90,0.14,,,0.58,VWS V14.01,2013-07-03 20:36:00,
2013-07-03 16:41:00,70.1,67.0,30.11,NNW,344,0.0,3.0,90,0.14,,,0.58,VWS V14.01,2013-07-03 20:41:00,
2013-07-03 16:46:00,70.0,66.9,30.11,NNE,31,0.0,3.0,90,0.14,,,0.58,VWS V14.01,2013-07-03 20:46:00,
2013-07-03 16:51:00,69.9,66.8,30.12,NE,51,0.0,3.0,90,0.14,,,0.58,VWS V14.01,2013-07-03 20:51:00,
2013-07-03 16:56:00,69.5,66.1,30.12,NNE,24,0.0,3.0,89,0.17,,,0.61,VWS V14.01,2013-07-03 20:56:00,
2013-07-03 17:01:00,69.3,66.2,30.12,NNE,24,0.0,0.0,90,0.09,,,0.67,VWS V14.01,2013-07-03 21:01:00,
2013-07-03 17:06:00,69.1,66.1,30.12,NNE,24,0.0,0.0,90,0.10,,,0.68,VWS V14.01,2013-07-03 21:06:00,
2013-07-03 17:12:00,68.9,65.8,30.13,NNE,24,0.0,1.0,90,0.12,,,0.70,VWS V14.01,2013-07-03 21:12:00,
2013-07-03 17:17:00,68.9,65.8,30.13,NNE,24,0.0,1.0,90,0.14,,,0.72,VWS V14.01,2013-07-03 21:17:00,
2013-07-03 17:22:00,68.9,65.8,30.13,NNE,14,0.0,4.0,90,0.15,,,0.73,VWS V14.01,2013-07-03 21:22:00,
2013-07-03 17:27:00,68.8,65.8,30.13,North,360,0.0,4.0,90,0.15,,,0.73,VWS V14.01,2013-07-03 21:27:00,
2013-07-03 17:32:00,68.7,65.7,30.12,NNW,333,0.0,2.0,90,0.15,,,0.73,VWS V14.01,2013-07-03 21:32:00,
2013-07-03 17:37:00,68.7,65.7,30.13,WNW,302,0.0,2.0,90,0.15,,,0.73,VWS V14.01,2013-07-03 21:37:00,
2013-07-03 17:42:00,68.7,65.7,30.13,WNW,302,1.0,2.0,90,0.15,,,0.73,VWS V14.01,2013-07-03 21:42:00,
2013-07-03 17:47:00,68.6,65.6,30.13,West,270,0.0,2.0,90,0.16,,,0.74,VWS V14.01,2013-07-03 21:47:00,
2013-07-03 17:52:00,68.3,65.3,30.13,WSW,251,0.0,6.0,90,0.16,,,0.74,VWS V14.01,2013-07-03 21:52:00,
2013-07-03 17:57:00,67.6,64.6,30.14,WSW,251,0.0,6.0,90,0.16,,,0.74,VWS V14.01,2013-07-03 21:57:00,
2013-07-03 18:02:00,67.0,63.7,30.14,West,273,0.0,4.0,89,0.10,,,0.74,VWS V14.01,2013-07-03 22:02:00,
2013-07-03 18:07:00,66.3,63.0,30.15,South,179,0.0,4.0,89,0.11,,,0.75,VWS V14.01,2013-07-03 22:07:00,
2013-07-03 18:13:00,65.8,62.5,30.16,SW,231,0.0,4.0,89,0.15,,,0.79,VWS V14.01,2013-07-03 22:13:00,
2013-07-03 18:18:00,65.4,62.1,30.17,SE,146,0.0,4.0,89,0.30,,,0.94,VWS V14.01,2013-07-03 22:18:00,
2013-07-03 18:23:00,65.1,61.8,30.17,SW,234,0.0,4.0,89,0.48,,,1.12,VWS V14.01,2013-07-03 22:23:00,
2013-07-03 18:28:00,64.4,61.1,30.16,West,273,0.0,7.0,89,0.64,,,1.28,VWS V14.01,2013-07-03 22:28:00,
2013-07-03 18:33:00,63.7,60.4,30.17,WNW,286,4.0,5.0,89,0.65,,,1.38,VWS V14.01,2013-07-03 22:33:00,
2013-07-03 18:38:00,63.1,60.1,30.17,West,275,5.0,10.0,90,0.71,,,1.44,VWS V14.01,2013-07-03 22:38:00,
2013-07-03 18:43:00,62.7,59.7,30.19,West,273,3.0,10.0,90,0.77,,,1.50,VWS V14.01,2013-07-03 22:43:00,
2013-07-03 18:48:00,62.3,59.3,30.19,WSW,258,3.0,10.0,90,0.84,,,1.57,VWS V14.01,2013-07-03 22:48:00,
2013-07-03 18:53:00,62.1,59.1,30.19,WSW,250,1.0,10.0,90,0.96,,,1.69,VWS V14.01,2013-07-03 22:53:00,
2013-07-03 18:58:00,62.0,59.0,30.19,West,281,0.0,10.0,90,1.00,,,1.73,VWS V14.01,2013-07-03 22:58:00,
2013-07-03 19:03:00,61.9,58.9,30.20,West,267,1.0,5.0,90,1.02,,,1.76,VWS V14.01,2013-07-03 23:03:00,
2013-07-03 19:08:00,61.8,59.2,30.19,SSW,211,1.0,7.0,91,1.06,,,1.80,VWS V14.01,2013-07-03 23:08:00,
2013-07-03 19:13:00,61.8,59.2,30.20,SSW,211,0.0,7.0,91,1.08,,,1.82,VWS V14.01,2013-07-03 23:13:00,
2013-07-03 19:19:00,61.8,59.2,30.19,West,280,0.0,7.0,91,1.10,,,1.84,VWS V14.01,2013-07-03 23:19:00,
2013-07-03 19:24:00,61.8,59.2,30.19,West,273,0.0,7.0,91,1.12,,,1.86,VWS V14.01,2013-07-03 23:24:00,
2013-07-03 19:29:00,61.8,59.2,30.19,West,273,0.0,7.0,91,1.13,,,1.87,VWS V14.01,2013-07-03 23:29:00,
2013-07-03 19:34:00,61.8,59.2,30.19,West,273,2.0,3.0,91,0.59,,,1.89,VWS V14.01,2013-07-03 23:34:00,
2013-07-03 19:39:00,61.8,59.2,30.19,West,273,1.0,3.0,91,0.60,,,1.90,VWS V14.01,2013-07-03 23:39:00,
2013-07-03 19:44:00,61.8,59.2,30.19,West,273,0.0,3.0,91,0.61,,,1.91,VWS V14.01,2013-07-03 23:44:00,
2013-07-03 19:49:00,61.8,59.2,30.18,West,273,0.0,3.0,91,0.62,,,1.92,VWS V14.01,2013-07-03 23:49:00,
2013-07-03 19:54:00,61.8,59.2,30.18,West,273,0.0,3.0,91,0.63,,,1.93,VWS V14.01,2013-07-03 23:54:00,
2013-07-03 19:59:00,61.8,59.2,30.17,West,273,0.0,0.0,91,0.21,,,1.94,VWS V14.01,2013-07-03 23:59:00,
2013-07-03 20:04:00,61.8,59.2,30.18,West,273,0.0,1.0,91,0.21,,,1.94,VWS V14.01,2013-07-04 00:04:00,
2013-07-03 20:09:00,61.7,59.0,30.18,West,273,0.0,1.0,91,0.21,,,1.94,VWS V14.01,2013-07-04 00:09:00,
2013-07-03 20:14:00,61.8,59.2,30.18,West,273,0.0,2.0,91,0.22,,,1.95,VWS V14.01,2013-07-04 00:14:00,
2013-07-03 20:19:00,61.9,59.2,30.18,West,273,0.0,2.0,91,0.22,,,1.95,VWS V14.01,2013-07-04 00:19:00,
2013-07-03 20:24:00,61.9,59.2,30.18,West,273,0.0,2.0,91,0.22,,,1.95,VWS V14.01,2013-07-04 00:24:00,
2013-07-03 20:30:00,61.9,59.2,30.18,West,273,0.0,0.0,91,0.08,,,1.95,VWS V14.01,2013-07-04 00:30:00,
2013-07-03 20:35:00,61.8,59.2,30.18,West,273,0.0,0.0,91,0.09,,,1.96,VWS V14.01,2013-07-04 00:35:00,
2013-07-03 20:40:00,61.9,59.2,30.18,West,273,0.0,0.0,91,0.09,,,1.96,VWS V14.01,2013-07-04 00:40:00,
2013-07-03 20:45:00,61.9,59.5,30.18,West,273,0.0,0.0,92,0.09,,,1.96,VWS V14.01,2013-07-04 00:45:00,
2013-07-03 20:50:00,62.0,59.7,30.18,West,273,0.0,0.0,92,0.09,,,1.96,VWS V14.01,2013-07-04 00:50:00,
2013-07-03 20:55:00,62.0,59.7,30.18,West,273,0.0,0.0,92,0.09,,,1.96,VWS V14.01,2013-07-04 00:55:00,
2013-07-03 21:00:00,62.0,59.7,30.18,West,273,0.0,0.0,92,0.02,,,1.96,VWS V14.01,2013-07-04 01:00:00,
2013-07-03 21:05:00,61.9,59.5,30.18,West,273,0.0,0.0,92,0.02,,,1.96,VWS V14.01,2013-07-04 01:05:00,
2013-07-03 21:10:00,61.9,59.5,30.18,West,273,0.0,0.0,92,0.02,,,1.96,VWS V14.01,2013-07-04 01:10:00,
2013-07-03 21:15:00,61.9,59.5,30.18,West,273,0.0,0.0,92,0.02,,,1.96,VWS V14.01,2013-07-04 01:15:00,
2013-07-03 21:20:00,61.9,59.5,30.17,West,273,0.0,0.0,92,0.03,,,1.97,VWS V14.01,2013-07-04 01:20:00,
2013-07-03 21:25:00,61.9,59.5,30.17,West,273,0.0,0.0,92,0.03,,,1.97,VWS V14.01,2013-07-04 01:25:00,
2013-07-03 21:30:00,61.9,59.5,30.18,West,273,0.0,0.0,92,0.02,,,1.97,VWS V14.01,2013-07-04 01:30:00,
2013-07-03 21:35:00,61.9,59.5,30.17,West,273,0.0,0.0,92,0.02,,,1.97,VWS V14.01,2013-07-04 01:35:00,
2013-07-03 21:41:00,61.9,59.5,30.17,West,273,0.0,0.0,92,0.02,,,1.97,VWS V14.01,2013-07-04 01:41:00,
2013-07-03 21:46:00,61.8,59.5,30.17,West,273,0.0,0.0,92,0.02,,,1.97,VWS V14.01,2013-07-04 01:46:00,
2013-07-03 21:51:00,61.8,59.5,30.17,West,273,0.0,0.0,92,0.02,,,1.97,VWS V14.01,2013-07-04 01:51:00,
2013-07-03 21:56:00,61.8,59.5,30.17,West,273,0.0,0.0,92,0.02,,,1.97,VWS V14.01,2013-07-04 01:56:00,
2013-07-03 22:01:00,61.8,59.5,30.17,West,273,0.0,0.0,92,0.01,,,1.97,VWS V14.01,2013-07-04 02:01:00,
2013-07-03 22:06:00,61.8,59.5,30.18,West,273,0.0,0.0,92,0.01,,,1.97,VWS V14.01,2013-07-04 02:06:00,
2013-07-03 22:11:00,61.8,59.5,30.18,West,273,0.0,0.0,92,0.01,,,1.97,VWS V14.01,2013-07-04 02:11:00,
2013-07-03 22:16:00,61.7,59.4,30.18,West,273,0.0,0.0,92,0.01,,,1.97,VWS V14.01,2013-07-04 02:16:00,
2013-07-03 22:21:00,61.6,59.3,30.18,West,273,0.0,0.0,92,0.01,,,1.97,VWS V14.01,2013-07-04 02:21:00,
2013-07-03 22:26:00,61.6,59.3,30.18,West,273,0.0,0.0,92,0.01,,,1.97,VWS V14.01,2013-07-04 02:26:00,
2013-07-03 22:31:00,61.5,59.2,30.18,West,273,0.0,0.0,92,0.00,,,1.97,VWS V14.01,2013-07-04 02:31:00,
2013-07-03 22:37:00,61.4,59.1,30.19,West,273,0.0,0.0,92,0.00,,,1.97,VWS V14.01,2013-07-04 02:37:00,
2013-07-03 22:42:00,61.4,59.1,30.19,West,273,0.0,0.0,92,0.00,,,1.97,VWS V14.01,2013-07-04 02:42:00,
2013-07-03 22:47:00,61.4,59.1,30.19,West,273,0.0,0.0,92,0.00,,,1.97,VWS V14.01,2013-07-04 02:47:00,
2013-07-03 22:52:00,61.3,59.0,30.19,West,273,0.0,0.0,92,0.00,,,1.97,VWS V14.01,2013-07-04 02:52:00,
2013-07-03 22:57:00,61.4,59.1,30.19,West,273,0.0,0.0,92,0.00,,,1.97,VWS V14.01,2013-07-04 02:57:00,
2013-07-03 23:02:00,61.3,59.0,30.19,West,273,0.0,0.0,92,0.00,,,1.97,VWS V14.01,2013-07-04 03:02:00,
2013-07-03 23:07:00,61.3,59.0,30.19,West,273,0.0,0.0,92,0.00,,,1.97,VWS V14.01,2013-07-04 03:07:00,
2013-07-03 23:12:00,61.4,59.1,30.19,West,273,0.0,0.0,92,0.00,,,1.97,VWS V14.01,2013-07-04 03:12:00,
2013-07-03 23:17:00,61.4,59.1,30.20,West,273,0.0,0.0,92,0.00,,,1.97,VWS V14.01,2013-07-04 03:17:00,
2013-07-03 23:22:00,61.3,59.0,30.19,West,273,0.0,0.0,92,0.00,,,1.97,VWS V14.01,2013-07-04 03:22:00,
2013-07-03 23:27:00,61.4,59.1,30.20,West,273,0.0,0.0,92,0.00,,,1.97,VWS V14.01,2013-07-04 03:27:00,
2013-07-03 23:32:00,61.3,59.0,30.19,West,273,0.0,0.0,92,0.00,,,1.97,VWS V14.01,2013-07-04 03:32:00,
2013-07-03 23:37:00,61.3,59.0,30.20,West,273,0.0,0.0,92,0.00,,,1.97,VWS V14.01,2013-07-04 03:37:00,
2013-07-03 23:42:00,61.4,59.1,30.20,West,273,0.0,0.0,92,0.00,,,1.97,VWS V14.01,2013-07-04 03:42:00,
2013-07-03 23:48:00,61.4,59.1,30.20,West,273,0.0,0.0,92,0.00,,,1.97,VWS V14.01,2013-07-04 03:48:00,
2013-07-03 23:53:00,61.4,59.1,30.20,West,273,0.0,0.0,92,0.00,,,1.97,VWS V14.01,2013-07-04 03:53:00,
2013-07-03 23:58:00,61.4,59.1,30.20,West,273,0.0,0.0,92,0.00,,,1.97,VWS V14.01,2013-07-04 03:58:00,